Погода в деревне Волот

Россия / Новгородская область     57°56′10″N   30°41′09″E
В апреле 2022 года жителям России запретили посещать сайт meteo.paraplan.net по решению Генеральной прокуратуры. Аудитория сайта уменьшилась в 10 раз. Владельцы сайта не видят смысла в поддержке погодного сервера в таких условиях. Сайт будет закрыт в октябре.
темп.,
°C
ветер,
м/с
пор.,
м/с
влажн.,
%
обл.,
%
осадки,
мм/ч
давл.,
гПа
погр.,
м
30 сентября, пт
пт3000:00+7ю389938 0.1 1006214
03:00+6ююз38978 0.1 1007183
06:00+5ююз37975 0.0 1009158
09:00+7ююз37905 0.0 1010212
12:00+11ююз47675 0.0 1011720
15:00+12зюз47719 0.2 10121127
18:00+10з377739 0.1 1013262
21:00+8зюз258231 0.1 1015112
1 октября, сб
сб100:00+7ююз358552 0.0 101696
03:00+5юз249097 0.0 101661
06:00+5юз2290100 0.0 101624
09:00+7юз1181100 0.0 101686
12:00+10в1167100 0.0 1015351
15:00+11всв3364100 0.0 1013659
18:00+9ссв2480100 0.0 1011101
21:00+7ссз2486100 0.0 101077
2 октября, вс
вс200:00+6ссз369177 0.0 1010172
03:00+5ссз26976 0.0 1009122
06:00+4сз23976 0.0 101049
09:00+6ссз248924 0.0 1010150
12:00+10с2368100 0.0 1010709
15:00+11ссв2360100 0.0 10091042
18:00+8всв1174100 0.0 100910
21:00+7ссв2280100 0.0 101014
3 октября, пн
пн300:00+6св2486100 0.0 100975
03:00+5ссв2591100 0.0 1009127
06:00+5с3792100 0.0 1008193
09:00+6с3883100 0.0 1007357
12:00+6с51083100 0.3 1005601
15:00+6с5986100 0.8 10031031
18:00+5ссз61094100 1.6 1001959
21:00+5сз61197100 4.5 999965
4 октября, вт
вт400:00+4сз61197100 3.8 997875
03:00+5зсз61196100 7.5 996999
06:00+5з5995100 3.6 996936
09:00+6з4995100 5.9 997948
12:00+7зюз61191100 2.1 9991187
15:00+7зюз61192100 3.6 10021183
18:00+7юз5991100 0.8 10041121
21:00+7юз4892100 1.3 10061026